{"data":{"norad_id":65523,"intl_designator":"2025-200D","name":"STARLINK-35078","alt_names":[],"object_type":"PAYLOAD","status":"ACTIVE","operator":null,"country":"US","launch_date":"2025-09-06","launch_site_code":"AFWTR","launch_vehicle":null,"mission":null,"orbit_class":"UNKNOWN","rcs_meters":null,"size_class":null,"mass_kg":null,"dimensions":null,"purposes":["comms"],"wikipedia_slug":null,"has_3d_model":false,"image_url":null,"decayed_at":null,"tle_current":{"epoch":"2026-09-20T22:37:59.700576Z","epoch_age_seconds":73713,"freshness":"FRESH","line1":"1 65523U 25200D   26263.94305209  .00015843  00000+0  49165-3 0  9999","line2":"2 65523  97.2849 330.3861 0002222 177.6408 182.4846 15.33468266 58715","mean_motion":15.33468266,"eccentricity":0.0002222,"inclination_deg":97.2849,"raan_deg":330.3861,"arg_perigee_deg":177.6408,"mean_anomaly_deg":182.4846,"bstar":0.00049165,"rev_number":5871,"period_min":93.904779898458,"perigee_km":463.95330175282,"apogee_km":466.99460245994,"semimajor_km":6843.6109521064,"source":"CELESTRAK","updated_at":"2026-09-21T09:00:35.648083Z"}}}